Regional Weather Roundup
Issued by NWS

Home | Current Version | Previous Version | Text Only | Print | Product List | Glossary Off
Versions: 1 2 3 4 5 6 7 8 9 10 11 12 13 14 15 16 17 18 19 20 21 22 23 24 25 26 27 28 29 30 31 32 33 34 35 36 37 38 39 40 41 42 43 44 45 46 47 48 49 50

000
ASUS45 KSLC 031710
RWRUT

UTAH REGIONAL WEATHER ROUNDUP
NATIONAL WEATHER SERVICE SALT LAKE CITY UT
1100 AM MDT WED JUN 03 2015

UTZ001>011-023>025-031800-

NORTHERN UTAH

CITY           SKY/WX    TMP DP  RH WIND       PRES   REMARKS
BRIGHAM CITY   PTSUNNY   72  44  36 W5        29.89F
HILL AFB       MOSUNNY   69  46  42 VRB6      29.91F
LOGAN          SUNNY     65  47  52 CALM      29.93F
OGDEN          MOSUNNY   70  46  42 W5        29.89F
PROVO AIRPORT  NOT AVBL
SALT LAKE CITY PTSUNNY   73  48  41 N5        29.88F
VERNAL         SUNNY     76  33  21 SE6       29.94F
WENDOVER       PTSUNNY   72  39  30 NE8       29.92F
HEBER CITY     SUNNY     66  36  32 CALM      29.96F
WEST JORDAN      N/A     72  45  37 CALM      29.90F

$$

UTZ012>022-026-027-031800-

SOUTHERN/CENTRAL UTAH

CITY           SKY/WX    TMP DP  RH WIND       PRES   REMARKS
BLANDING       SUNNY     72  21  15 S6        30.12F
BRYCE CANYON   SUNNY     63  20  19 SE13      30.09F
CEDAR CITY     SUNNY     72  21  14 SW10      29.96F
DELTA          SUNNY     73  31  21 S6        29.91F
HANKSVILLE     SUNNY     81  21  11 S6        29.90F
MILFORD        SUNNY     75  25  15 S15       29.93F
MOAB/CYNLANDS  SUNNY     82  23  11 E6        29.89F
PRICE          SUNNY     73  26  17 SE6       29.97S
ST GEORGE      SUNNY     81  27  13 NW6       29.85F
KANAB          SUNNY     73  23  15 S10       30.00F

$$

REGIONAL REPORTS     COLORADO/ARIZONA

CITY           SKY/WX    TMP DP  RH WIND       PRES   REMARKS
CRAIG, CO      SUNNY     71  41  33 CALM      30.01F
GRAND JUNCTION SUNNY     77  29  17 S5        29.92F
RIFLE          SUNNY     72  36  26 N6        29.97F
MONTROSE       SUNNY     77  33  20 N7        30.01F
CORTEZ         SUNNY     74  23  15 MISG      30.06F
PAGE, AZ       SUNNY     79  17  10 W6        29.93F
GRAND CANYON   SUNNY     70  23  17 S15G25    30.08F
KINGMAN        SUNNY     82  25  12 SW17G25   29.88F
FLAGSTAFF      SUNNY     65  16  15 S20G26    30.12F

$$

REGIONAL REPORTS    NEVADA/IDAHO/WYOMING

CITY           SKY/WX    TMP DP  RH WIND       PRES   REMARKS
LAS VEGAS, NV  SUNNY     83  33  16 S15G23    29.75F
ELY            MOSUNNY   67  30  25 NE8       29.98F
ELKO           PTSUNNY   65  40  39 NE5       29.95F
POCATELLO, ID  SUNNY     61  48  62 W8        29.99F
BURLEY         PTSUNNY   61  46  57 VRB7      29.98F
EVANSTON, WY   MOSUNNY   64  40  41 N5        30.04F
ROCK SPRINGS   SUNNY     66  39  37 E7        30.05F
KEMMERER       SUNNY     64  34  32 E13G18    30.08F

$$



USA.gov is the U.S. government's official web portal to all federal, state and local government web resources and services.